owner,sensor,date,latitude,longitude,air_pressure(mBar),qcFlag 
COMPS,ioos:station:USF.COMPS:C12:1,2015-03-01T00:05:00Z,27.4980,-83.7220,1022.91,1111122 
COMPS,ioos:station:USF.COMPS:C12:1,2015-03-01T00:35:00Z,27.4980,-83.7220,1023.02,1111122 
COMPS,ioos:station:USF.COMPS:C12:1,2015-03-01T01:05:00Z,27.4980,-83.7220,1023.45,1111122 
COMPS,ioos:station:USF.COMPS:C12:1,2015-03-01T01:35:00Z,27.4980,-83.7220,1023.76,1111122 
COMPS,ioos:station:USF.COMPS:C12:1,2015-03-01T02:05:00Z,27.4980,-83.7220,1024.02,1111122 
COMPS,ioos:station:USF.COMPS:C12:1,2015-03-01T02:35:00Z,27.4980,-83.7220,1024.21,1111122 
COMPS,ioos:station:USF.COMPS:C12:1,2015-03-01T03:05:00Z,27.4980,-83.7220,1024.62,1111122 
COMPS,ioos:station:USF.COMPS:C12:1,2015-03-01T03:35:00Z,27.4980,-83.7220,1024.52,1111122 
COMPS,ioos:station:USF.COMPS:C12:1,2015-03-01T04:05:00Z,27.4980,-83.7220,1024.29,1111122 
COMPS,ioos:station:USF.COMPS:C12:1,2015-03-01T04:35:00Z,27.4980,-83.7220,1024.26,1111122 
COMPS,ioos:station:USF.COMPS:C12:1,2015-03-01T05:05:00Z,27.4980,-83.7220,1024.06,1111122 
COMPS,ioos:station:USF.COMPS:C12:1,2015-03-01T05:35:00Z,27.4980,-83.7220,1024.02,1111122 
COMPS,ioos:station:USF.COMPS:C12:1,2015-03-01T06:05:00Z,27.4980,-83.7220,1024.03,1111122 
COMPS,ioos:station:USF.COMPS:C12:1,2015-03-01T06:35:00Z,27.4980,-83.7220,1023.8,1111122 
COMPS,ioos:station:USF.COMPS:C12:1,2015-03-01T07:05:00Z,27.4980,-83.7220,1023.68,1111122 
COMPS,ioos:station:USF.COMPS:C12:1,2015-03-01T07:35:00Z,27.4980,-83.7220,1023.5,1111122 
COMPS,ioos:station:USF.COMPS:C12:1,2015-03-01T08:05:00Z,27.4980,-83.7220,1023.45,1111122 
COMPS,ioos:station:USF.COMPS:C12:1,2015-03-01T08:35:00Z,27.4980,-83.7220,1023.35,1111122 
COMPS,ioos:station:USF.COMPS:C12:1,2015-03-01T09:05:00Z,27.4980,-83.7220,1023.01,1111122 
COMPS,ioos:station:USF.COMPS:C12:1,2015-03-01T09:35:00Z,27.4980,-83.7220,1023.35,1111122 
COMPS,ioos:station:USF.COMPS:C12:1,2015-03-01T10:05:00Z,27.4980,-83.7220,1023.48,1111122 
COMPS,ioos:station:USF.COMPS:C12:1,2015-03-01T10:35:00Z,27.4980,-83.7220,1023.74,1111122 
COMPS,ioos:station:USF.COMPS:C12:1,2015-03-01T11:05:00Z,27.4980,-83.7220,1023.76,1111122 
COMPS,ioos:station:USF.COMPS:C12:1,2015-03-01T11:35:00Z,27.4980,-83.7220,1024.09,1111122 
COMPS,ioos:station:USF.COMPS:C12:1,2015-03-01T12:05:00Z,27.4980,-83.7220,1024.48,1111122 
COMPS,ioos:station:USF.COMPS:C12:1,2015-03-01T12:35:00Z,27.4980,-83.7220,1024.81,1111122 
COMPS,ioos:station:USF.COMPS:C12:1,2015-03-01T13:05:00Z,27.4980,-83.7220,1024.96,1111122 
COMPS,ioos:station:USF.COMPS:C12:1,2015-03-01T13:35:00Z,27.4980,-83.7220,1025.25,1111122 
COMPS,ioos:station:USF.COMPS:C12:1,2015-03-01T14:05:00Z,27.4980,-83.7220,1025.75,1111122 
COMPS,ioos:station:USF.COMPS:C12:1,2015-03-01T14:35:00Z,27.4980,-83.7220,1025.82,1111122 
COMPS,ioos:station:USF.COMPS:C12:1,2015-03-01T15:05:00Z,27.4980,-83.7220,1026.1,1111122 
COMPS,ioos:station:USF.COMPS:C12:1,2015-03-01T15:35:00Z,27.4980,-83.7220,1026.16,1111122 
COMPS,ioos:station:USF.COMPS:C12:1,2015-03-01T16:05:00Z,27.4980,-83.7220,1026.28,1111122 
COMPS,ioos:station:USF.COMPS:C12:1,2015-03-01T16:35:00Z,27.4980,-83.7220,1026.04,1111122 
COMPS,ioos:station:USF.COMPS:C12:1,2015-03-01T17:05:00Z,27.4980,-83.7220,1025.72,1111122 
COMPS,ioos:station:USF.COMPS:C12:1,2015-03-01T17:35:00Z,27.4980,-83.7220,1025.19,1111122 
COMPS,ioos:station:USF.COMPS:C12:1,2015-03-01T18:05:00Z,27.4980,-83.7220,1024.64,1111122 
COMPS,ioos:station:USF.COMPS:C12:1,2015-03-01T18:35:00Z,27.4980,-83.7220,1024.14,1111122 
COMPS,ioos:station:USF.COMPS:C12:1,2015-03-01T19:05:00Z,27.4980,-83.7220,1023.67,1111122 
COMPS,ioos:station:USF.COMPS:C12:1,2015-03-01T19:35:00Z,27.4980,-83.7220,1023.32,1111122 
COMPS,ioos:station:USF.COMPS:C12:1,2015-03-01T20:05:00Z,27.4980,-83.7220,1023.08,1111122 
COMPS,ioos:station:USF.COMPS:C12:1,2015-03-01T20:35:00Z,27.4980,-83.7220,1023.01,1111122 
COMPS,ioos:station:USF.COMPS:C12:1,2015-03-01T21:05:00Z,27.4980,-83.7220,1022.78,1111122 
COMPS,ioos:station:USF.COMPS:C12:1,2015-03-01T21:35:00Z,27.4980,-83.7220,1022.77,1111122 
COMPS,ioos:station:USF.COMPS:C12:1,2015-03-01T22:05:00Z,27.4980,-83.7220,1022.74,1111122 
COMPS,ioos:station:USF.COMPS:C12:1,2015-03-01T22:35:00Z,27.4980,-83.7220,1022.78,1111122 
COMPS,ioos:station:USF.COMPS:C12:1,2015-03-01T23:05:00Z,27.4980,-83.7220,1022.72,1111122 
COMPS,ioos:station:USF.COMPS:C12:1,2015-03-01T23:35:00Z,27.4980,-83.7220,1022.77,1111122 
COMPS,ioos:station:USF.COMPS:C12:1,2015-03-02T00:05:00Z,27.4980,-83.7220,1022.81,1111122 
COMPS,ioos:station:USF.COMPS:C12:1,2015-03-02T00:35:00Z,27.4980,-83.7220,1022.87,1111122 
COMPS,ioos:station:USF.COMPS:C12:1,2015-03-02T01:05:00Z,27.4980,-83.7220,1023.05,1111122 
COMPS,ioos:station:USF.COMPS:C12:1,2015-03-02T01:35:00Z,27.4980,-83.7220,1023.44,1111122 
COMPS,ioos:station:USF.COMPS:C12:1,2015-03-02T02:05:00Z,27.4980,-83.7220,1023.83,1111122 
COMPS,ioos:station:USF.COMPS:C12:1,2015-03-02T02:35:00Z,27.4980,-83.7220,1024.18,1111122 
COMPS,ioos:station:USF.COMPS:C12:1,2015-03-02T03:05:00Z,27.4980,-83.7220,1024.39,1111122 
COMPS,ioos:station:USF.COMPS:C12:1,2015-03-02T03:35:00Z,27.4980,-83.7220,1024.26,1111122 
COMPS,ioos:station:USF.COMPS:C12:1,2015-03-02T04:05:00Z,27.4980,-83.7220,1024.27,1111122 
COMPS,ioos:station:USF.COMPS:C12:1,2015-03-02T04:35:00Z,27.4980,-83.7220,1024.27,1111122 
COMPS,ioos:station:USF.COMPS:C12:1,2015-03-02T05:05:00Z,27.4980,-83.7220,1024.23,1111122 
COMPS,ioos:station:USF.COMPS:C12:1,2015-03-02T05:35:00Z,27.4980,-83.7220,1023.92,1111122 
COMPS,ioos:station:USF.COMPS:C12:1,2015-03-02T06:05:00Z,27.4980,-83.7220,1023.81,1111122 
COMPS,ioos:station:USF.COMPS:C12:1,2015-03-02T06:35:00Z,27.4980,-83.7220,1023.59,1111122 
COMPS,ioos:station:USF.COMPS:C12:1,2015-03-02T07:05:00Z,27.4980,-83.7220,1023.37,1111122 
COMPS,ioos:station:USF.COMPS:C12:1,2015-03-02T07:35:00Z,27.4980,-83.7220,1022.91,1111122 
COMPS,ioos:station:USF.COMPS:C12:1,2015-03-02T08:05:00Z,27.4980,-83.7220,1022.89,1111122 
COMPS,ioos:station:USF.COMPS:C12:1,2015-03-02T08:35:00Z,27.4980,-83.7220,1022.76,1111122 
COMPS,ioos:station:USF.COMPS:C12:1,2015-03-02T09:05:00Z,27.4980,-83.7220,1022.57,1111122 
COMPS,ioos:station:USF.COMPS:C12:1,2015-03-02T09:35:00Z,27.4980,-83.7220,1022.57,1111122 
COMPS,ioos:station:USF.COMPS:C12:1,2015-03-02T10:05:00Z,27.4980,-83.7220,1022.62,1111122 
COMPS,ioos:station:USF.COMPS:C12:1,2015-03-02T10:35:00Z,27.4980,-83.7220,1022.78,1111122 
COMPS,ioos:station:USF.COMPS:C12:1,2015-03-02T11:05:00Z,27.4980,-83.7220,1022.95,1111122 
COMPS,ioos:station:USF.COMPS:C12:1,2015-03-02T11:35:00Z,27.4980,-83.7220,1023.12,1111122 
COMPS,ioos:station:USF.COMPS:C12:1,2015-03-02T12:05:00Z,27.4980,-83.7220,1023.32,1111122 
COMPS,ioos:station:USF.COMPS:C12:1,2015-03-02T12:35:00Z,27.4980,-83.7220,1023.45,1111122 
COMPS,ioos:station:USF.COMPS:C12:1,2015-03-02T13:05:00Z,27.4980,-83.7220,1023.56,1111122 
COMPS,ioos:station:USF.COMPS:C12:1,2015-03-02T13:35:00Z,27.4980,-83.7220,1023.71,1111122 
COMPS,ioos:station:USF.COMPS:C12:1,2015-03-02T14:05:00Z,27.4980,-83.7220,1023.78,1111122 
COMPS,ioos:station:USF.COMPS:C12:1,2015-03-02T14:35:00Z,27.4980,-83.7220,1023.74,1111122 
COMPS,ioos:station:USF.COMPS:C12:1,2015-03-02T15:05:00Z,27.4980,-83.7220,1023.75,1111122 
COMPS,ioos:station:USF.COMPS:C12:1,2015-03-02T15:35:00Z,27.4980,-83.7220,1023.76,1111122 
COMPS,ioos:station:USF.COMPS:C12:1,2015-03-02T16:05:00Z,27.4980,-83.7220,1023.75,1111122 
COMPS,ioos:station:USF.COMPS:C12:1,2015-03-02T16:35:00Z,27.4980,-83.7220,1023.86,1111122 
COMPS,ioos:station:USF.COMPS:C12:1,2015-03-02T17:05:00Z,27.4980,-83.7220,1023.91,1111122 
COMPS,ioos:station:USF.COMPS:C12:1,2015-03-02T17:35:00Z,27.4980,-83.7220,1023.24,1111122 
COMPS,ioos:station:USF.COMPS:C12:1,2015-03-02T18:05:00Z,27.4980,-83.7220,1022.75,1111122 
COMPS,ioos:station:USF.COMPS:C12:1,2015-03-02T18:35:00Z,27.4980,-83.7220,1022.39,1111122 
COMPS,ioos:station:USF.COMPS:C12:1,2015-03-02T19:05:00Z,27.4980,-83.7220,1021.93,1111122 
COMPS,ioos:station:USF.COMPS:C12:1,2015-03-02T19:35:00Z,27.4980,-83.7220,1021.75,1111122 
COMPS,ioos:station:USF.COMPS:C12:1,2015-03-02T20:05:00Z,27.4980,-83.7220,1021.55,1111122 
COMPS,ioos:station:USF.COMPS:C12:1,2015-03-02T20:35:00Z,27.4980,-83.7220,1021.37,1111122 
COMPS,ioos:station:USF.COMPS:C12:1,2015-03-02T21:05:00Z,27.4980,-83.7220,1021.09,1111122 
COMPS,ioos:station:USF.COMPS:C12:1,2015-03-02T21:35:00Z,27.4980,-83.7220,1020.94,1111122 
COMPS,ioos:station:USF.COMPS:C12:1,2015-03-02T22:05:00Z,27.4980,-83.7220,1020.92,1111122 
COMPS,ioos:station:USF.COMPS:C12:1,2015-03-02T22:35:00Z,27.4980,-83.7220,1020.79,1111122 
COMPS,ioos:station:USF.COMPS:C12:1,2015-03-02T23:05:00Z,27.4980,-83.7220,1020.76,1111122 
COMPS,ioos:station:USF.COMPS:C12:1,2015-03-02T23:35:00Z,27.4980,-83.7220,1020.96,1111122 
COMPS,ioos:station:USF.COMPS:C12:1,2015-03-03T00:05:00Z,27.4980,-83.7220,1020.96,1111122 
COMPS,ioos:station:USF.COMPS:C12:1,2015-03-03T00:35:00Z,27.4980,-83.7220,1021.03,1111122 
COMPS,ioos:station:USF.COMPS:C12:1,2015-03-03T01:05:00Z,27.4980,-83.7220,1021.15,1111122 
COMPS,ioos:station:USF.COMPS:C12:1,2015-03-03T01:35:00Z,27.4980,-83.7220,1021.51,1111122 
COMPS,ioos:station:USF.COMPS:C12:1,2015-03-03T02:05:00Z,27.4980,-83.7220,1021.62,1111122 
COMPS,ioos:station:USF.COMPS:C12:1,2015-03-03T02:35:00Z,27.4980,-83.7220,1021.62,1111122 
COMPS,ioos:station:USF.COMPS:C12:1,2015-03-03T03:05:00Z,27.4980,-83.7220,1021.59,1111122 
COMPS,ioos:station:USF.COMPS:C12:1,2015-03-03T03:35:00Z,27.4980,-83.7220,1021.61,1111122 
COMPS,ioos:station:USF.COMPS:C12:1,2015-03-03T04:05:00Z,27.4980,-83.7220,1021.6,1111122 
COMPS,ioos:station:USF.COMPS:C12:1,2015-03-03T04:35:00Z,27.4980,-83.7220,1021.42,1111122 
COMPS,ioos:station:USF.COMPS:C12:1,2015-03-03T05:05:00Z,27.4980,-83.7220,1021.15,1111122 
COMPS,ioos:station:USF.COMPS:C12:1,2015-03-03T05:35:00Z,27.4980,-83.7220,1021.06,1111122 
COMPS,ioos:station:USF.COMPS:C12:1,2015-03-03T06:05:00Z,27.4980,-83.7220,1021.02,1111122 
COMPS,ioos:station:USF.COMPS:C12:1,2015-03-03T06:35:00Z,27.4980,-83.7220,1020.78,1111122 
COMPS,ioos:station:USF.COMPS:C12:1,2015-03-03T07:05:00Z,27.4980,-83.7220,1020.73,1111122 
COMPS,ioos:station:USF.COMPS:C12:1,2015-03-03T07:35:00Z,27.4980,-83.7220,1020.29,1111122 
COMPS,ioos:station:USF.COMPS:C12:1,2015-03-03T08:05:00Z,27.4980,-83.7220,1020.03,1111122 
COMPS,ioos:station:USF.COMPS:C12:1,2015-03-03T08:35:00Z,27.4980,-83.7220,1019.76,1111122 
COMPS,ioos:station:USF.COMPS:C12:1,2015-03-03T09:05:00Z,27.4980,-83.7220,1019.63,1111122 
COMPS,ioos:station:USF.COMPS:C12:1,2015-03-03T09:35:00Z,27.4980,-83.7220,1019.47,1111122 
COMPS,ioos:station:USF.COMPS:C12:1,2015-03-03T10:05:00Z,27.4980,-83.7220,1019.33,1111122 
COMPS,ioos:station:USF.COMPS:C12:1,2015-03-03T10:35:00Z,27.4980,-83.7220,1019.6,1111122 
COMPS,ioos:station:USF.COMPS:C12:1,2015-03-03T11:05:00Z,27.4980,-83.7220,1020.05,1111122 
COMPS,ioos:station:USF.COMPS:C12:1,2015-03-03T11:35:00Z,27.4980,-83.7220,1020.05,1111122 
COMPS,ioos:station:USF.COMPS:C12:1,2015-03-03T12:05:00Z,27.4980,-83.7220,1020.17,1111122 
COMPS,ioos:station:USF.COMPS:C12:1,2015-03-03T12:35:00Z,27.4980,-83.7220,1020.48,1111122 
COMPS,ioos:station:USF.COMPS:C12:1,2015-03-03T13:05:00Z,27.4980,-83.7220,1020.75,1111122 
COMPS,ioos:station:USF.COMPS:C12:1,2015-03-03T13:35:00Z,27.4980,-83.7220,1020.86,1111122 
COMPS,ioos:station:USF.COMPS:C12:1,2015-03-03T14:05:00Z,27.4980,-83.7220,1021.08,1111122 
COMPS,ioos:station:USF.COMPS:C12:1,2015-03-03T14:35:00Z,27.4980,-83.7220,1021.13,1111122 
COMPS,ioos:station:USF.COMPS:C12:1,2015-03-03T15:05:00Z,27.4980,-83.7220,1021.09,1111122 
COMPS,ioos:station:USF.COMPS:C12:1,2015-03-03T15:35:00Z,27.4980,-83.7220,1021.03,1111122 
COMPS,ioos:station:USF.COMPS:C12:1,2015-03-03T16:05:00Z,27.4980,-83.7220,1020.96,1111122 
COMPS,ioos:station:USF.COMPS:C12:1,2015-03-03T16:35:00Z,27.4980,-83.7220,1020.86,1111122 
COMPS,ioos:station:USF.COMPS:C12:1,2015-03-03T17:05:00Z,27.4980,-83.7220,1020.54,1111122 
COMPS,ioos:station:USF.COMPS:C12:1,2015-03-03T17:35:00Z,27.4980,-83.7220,1020.22,1111122 
COMPS,ioos:station:USF.COMPS:C12:1,2015-03-03T18:05:00Z,27.4980,-83.7220,1019.78,1111122 
COMPS,ioos:station:USF.COMPS:C12:1,2015-03-03T18:35:00Z,27.4980,-83.7220,1019.27,1111122 
COMPS,ioos:station:USF.COMPS:C12:1,2015-03-03T19:05:00Z,27.4980,-83.7220,1018.88,1111122 
COMPS,ioos:station:USF.COMPS:C12:1,2015-03-03T19:35:00Z,27.4980,-83.7220,1018.74,1111122 
COMPS,ioos:station:USF.COMPS:C12:1,2015-03-03T20:05:00Z,27.4980,-83.7220,1018.61,1111122 
COMPS,ioos:station:USF.COMPS:C12:1,2015-03-03T20:35:00Z,27.4980,-83.7220,1018.12,1111122 
COMPS,ioos:station:USF.COMPS:C12:1,2015-03-03T21:05:00Z,27.4980,-83.7220,1017.67,1111122 
COMPS,ioos:station:USF.COMPS:C12:1,2015-03-03T21:35:00Z,27.4980,-83.7220,1017.43,1111122 
COMPS,ioos:station:USF.COMPS:C12:1,2015-03-03T22:05:00Z,27.4980,-83.7220,1017.44,1111122 
COMPS,ioos:station:USF.COMPS:C12:1,2015-03-03T22:35:00Z,27.4980,-83.7220,1017.38,1111122 
COMPS,ioos:station:USF.COMPS:C12:1,2015-03-03T23:05:00Z,27.4980,-83.7220,1017.42,1111122 
COMPS,ioos:station:USF.COMPS:C12:1,2015-03-03T23:35:00Z,27.4980,-83.7220,1017.58,1111122 
COMPS,ioos:station:USF.COMPS:C12:1,2015-03-04T00:05:00Z,27.4980,-83.7220,1017.54,1111122 
COMPS,ioos:station:USF.COMPS:C12:1,2015-03-04T00:35:00Z,27.4980,-83.7220,1017.61,1111122 
COMPS,ioos:station:USF.COMPS:C12:1,2015-03-04T01:05:00Z,27.4980,-83.7220,1017.83,1111122 
COMPS,ioos:station:USF.COMPS:C12:1,2015-03-04T01:35:00Z,27.4980,-83.7220,1017.92,1111122 
COMPS,ioos:station:USF.COMPS:C12:1,2015-03-04T02:05:00Z,27.4980,-83.7220,1017.97,1111122 
COMPS,ioos:station:USF.COMPS:C12:1,2015-03-04T02:35:00Z,27.4980,-83.7220,1018.29,1111122 
COMPS,ioos:station:USF.COMPS:C12:1,2015-03-04T03:05:00Z,27.4980,-83.7220,1018.58,1111122 
COMPS,ioos:station:USF.COMPS:C12:1,2015-03-04T03:35:00Z,27.4980,-83.7220,1018.85,1111122 
COMPS,ioos:station:USF.COMPS:C12:1,2015-03-04T04:05:00Z,27.4980,-83.7220,1018.74,1111122 
COMPS,ioos:station:USF.COMPS:C12:1,2015-03-04T04:35:00Z,27.4980,-83.7220,1018.56,1111122 
COMPS,ioos:station:USF.COMPS:C12:1,2015-03-04T05:05:00Z,27.4980,-83.7220,1018.35,1111122 
COMPS,ioos:station:USF.COMPS:C12:1,2015-03-04T05:35:00Z,27.4980,-83.7220,1018.16,1111122 
COMPS,ioos:station:USF.COMPS:C12:1,2015-03-04T06:05:00Z,27.4980,-83.7220,1017.98,1111122 
COMPS,ioos:station:USF.COMPS:C12:1,2015-03-04T06:35:00Z,27.4980,-83.7220,1017.68,1111122 
COMPS,ioos:station:USF.COMPS:C12:1,2015-03-04T07:05:00Z,27.4980,-83.7220,1017.51,1111122 
COMPS,ioos:station:USF.COMPS:C12:1,2015-03-04T07:35:00Z,27.4980,-83.7220,1017.22,1111122 
COMPS,ioos:station:USF.COMPS:C12:1,2015-03-04T08:05:00Z,27.4980,-83.7220,1017.03,1111122 
COMPS,ioos:station:USF.COMPS:C12:1,2015-03-04T08:35:00Z,27.4980,-83.7220,1016.95,1111122 
COMPS,ioos:station:USF.COMPS:C12:1,2015-03-04T09:05:00Z,27.4980,-83.7220,1016.71,1111122 
COMPS,ioos:station:USF.COMPS:C12:1,2015-03-04T09:35:00Z,27.4980,-83.7220,1016.7,1111122 
COMPS,ioos:station:USF.COMPS:C12:1,2015-03-04T10:05:00Z,27.4980,-83.7220,1016.94,1111122 
COMPS,ioos:station:USF.COMPS:C12:1,2015-03-04T10:35:00Z,27.4980,-83.7220,1017.03,1111122 
COMPS,ioos:station:USF.COMPS:C12:1,2015-03-04T11:05:00Z,27.4980,-83.7220,1017.16,1111122 
COMPS,ioos:station:USF.COMPS:C12:1,2015-03-04T11:35:00Z,27.4980,-83.7220,1017.42,1111122 
COMPS,ioos:station:USF.COMPS:C12:1,2015-03-04T12:05:00Z,27.4980,-83.7220,1017.55,1111122 
COMPS,ioos:station:USF.COMPS:C12:1,2015-03-04T12:35:00Z,27.4980,-83.7220,1017.91,1111122 
COMPS,ioos:station:USF.COMPS:C12:1,2015-03-04T13:05:00Z,27.4980,-83.7220,1017.97,1111122 
COMPS,ioos:station:USF.COMPS:C12:1,2015-03-04T13:35:00Z,27.4980,-83.7220,1018.38,1111122 
COMPS,ioos:station:USF.COMPS:C12:1,2015-03-04T14:05:00Z,27.4980,-83.7220,1018.59,1111122 
COMPS,ioos:station:USF.COMPS:C12:1,2015-03-04T14:35:00Z,27.4980,-83.7220,1018.72,1111122 
COMPS,ioos:station:USF.COMPS:C12:1,2015-03-04T15:05:00Z,27.4980,-83.7220,1018.71,1111122 
COMPS,ioos:station:USF.COMPS:C12:1,2015-03-04T15:35:00Z,27.4980,-83.7220,1018.7,1111122 
COMPS,ioos:station:USF.COMPS:C12:1,2015-03-04T16:05:00Z,27.4980,-83.7220,1018.7,1111122 
COMPS,ioos:station:USF.COMPS:C12:1,2015-03-04T16:35:00Z,27.4980,-83.7220,1018.57,1111122 
COMPS,ioos:station:USF.COMPS:C12:1,2015-03-04T17:05:00Z,27.4980,-83.7220,1018.33,1111122 
COMPS,ioos:station:USF.COMPS:C12:1,2015-03-04T17:35:00Z,27.4980,-83.7220,1017.95,1111122 
COMPS,ioos:station:USF.COMPS:C12:1,2015-03-04T18:05:00Z,27.4980,-83.7220,1017.48,1111122 
COMPS,ioos:station:USF.COMPS:C12:1,2015-03-04T18:35:00Z,27.4980,-83.7220,1017.08,1111122 
COMPS,ioos:station:USF.COMPS:C12:1,2015-03-04T19:05:00Z,27.4980,-83.7220,1016.93,1111122 
COMPS,ioos:station:USF.COMPS:C12:1,2015-03-04T19:35:00Z,27.4980,-83.7220,1016.51,1111122 
COMPS,ioos:station:USF.COMPS:C12:1,2015-03-04T20:05:00Z,27.4980,-83.7220,1016.23,1111122 
COMPS,ioos:station:USF.COMPS:C12:1,2015-03-04T20:35:00Z,27.4980,-83.7220,1015.94,1111122 
COMPS,ioos:station:USF.COMPS:C12:1,2015-03-04T21:05:00Z,27.4980,-83.7220,1015.75,1111122 
COMPS,ioos:station:USF.COMPS:C12:1,2015-03-04T21:35:00Z,27.4980,-83.7220,1015.63,1111122 
COMPS,ioos:station:USF.COMPS:C12:1,2015-03-04T22:05:00Z,27.4980,-83.7220,1015.61,1111122 
COMPS,ioos:station:USF.COMPS:C12:1,2015-03-04T22:35:00Z,27.4980,-83.7220,1015.66,1111122 
COMPS,ioos:station:USF.COMPS:C12:1,2015-03-04T23:05:00Z,27.4980,-83.7220,1015.61,1111122 
COMPS,ioos:station:USF.COMPS:C12:1,2015-03-04T23:35:00Z,27.4980,-83.7220,1015.61,1111122 
COMPS,ioos:station:USF.COMPS:C12:1,2015-03-05T00:05:00Z,27.4980,-83.7220,1015.65,1111122 
COMPS,ioos:station:USF.COMPS:C12:1,2015-03-05T00:35:00Z,27.4980,-83.7220,1015.74,1111122 
COMPS,ioos:station:USF.COMPS:C12:1,2015-03-05T01:05:00Z,27.4980,-83.7220,1015.69,1111122 
COMPS,ioos:station:USF.COMPS:C12:1,2015-03-05T01:35:00Z,27.4980,-83.7220,1016.05,1111122 
COMPS,ioos:station:USF.COMPS:C12:1,2015-03-05T02:05:00Z,27.4980,-83.7220,1016.1,1111122 
COMPS,ioos:station:USF.COMPS:C12:1,2015-03-05T02:35:00Z,27.4980,-83.7220,1016.15,1111122 
COMPS,ioos:station:USF.COMPS:C12:1,2015-03-05T03:05:00Z,27.4980,-83.7220,1016.23,1111122 
COMPS,ioos:station:USF.COMPS:C12:1,2015-03-05T03:35:00Z,27.4980,-83.7220,1016.13,1111122 
COMPS,ioos:station:USF.COMPS:C12:1,2015-03-05T04:05:00Z,27.4980,-83.7220,1016.19,1111122 
COMPS,ioos:station:USF.COMPS:C12:1,2015-03-05T04:35:00Z,27.4980,-83.7220,1016.07,1111122 
COMPS,ioos:station:USF.COMPS:C12:1,2015-03-05T05:05:00Z,27.4980,-83.7220,1015.78,1111122 
COMPS,ioos:station:USF.COMPS:C12:1,2015-03-05T05:35:00Z,27.4980,-83.7220,1015.75,1111122 
COMPS,ioos:station:USF.COMPS:C12:1,2015-03-05T06:05:00Z,27.4980,-83.7220,1015.52,1111122 
COMPS,ioos:station:USF.COMPS:C12:1,2015-03-05T06:35:00Z,27.4980,-83.7220,1015.19,1111122 
COMPS,ioos:station:USF.COMPS:C12:1,2015-03-05T07:05:00Z,27.4980,-83.7220,1014.94,1111122 
COMPS,ioos:station:USF.COMPS:C12:1,2015-03-05T07:35:00Z,27.4980,-83.7220,1014.82,1111122 
COMPS,ioos:station:USF.COMPS:C12:1,2015-03-05T08:05:00Z,27.4980,-83.7220,1014.75,1111122 
COMPS,ioos:station:USF.COMPS:C12:1,2015-03-05T08:35:00Z,27.4980,-83.7220,1014.72,1111122 
COMPS,ioos:station:USF.COMPS:C12:1,2015-03-05T09:05:00Z,27.4980,-83.7220,1014.71,1111122 
COMPS,ioos:station:USF.COMPS:C12:1,2015-03-05T09:35:00Z,27.4980,-83.7220,1014.64,1111122 
COMPS,ioos:station:USF.COMPS:C12:1,2015-03-05T10:05:00Z,27.4980,-83.7220,1014.74,1111122 
COMPS,ioos:station:USF.COMPS:C12:1,2015-03-05T10:35:00Z,27.4980,-83.7220,1015.01,1111122 
COMPS,ioos:station:USF.COMPS:C12:1,2015-03-05T11:05:00Z,27.4980,-83.7220,1015.41,1111122 
COMPS,ioos:station:USF.COMPS:C12:1,2015-03-05T11:35:00Z,27.4980,-83.7220,1016.01,1111122 
COMPS,ioos:station:USF.COMPS:C12:1,2015-03-05T12:05:00Z,27.4980,-83.7220,1016.41,1111122 
COMPS,ioos:station:USF.COMPS:C12:1,2015-03-05T12:35:00Z,27.4980,-83.7220,1016.91,1111122 
COMPS,ioos:station:USF.COMPS:C12:1,2015-03-05T13:05:00Z,27.4980,-83.7220,1017.47,1111122 
COMPS,ioos:station:USF.COMPS:C12:1,2015-03-05T13:35:00Z,27.4980,-83.7220,1017.66,1111122 
COMPS,ioos:station:USF.COMPS:C12:1,2015-03-05T14:05:00Z,27.4980,-83.7220,1018.01,1111122 
COMPS,ioos:station:USF.COMPS:C12:1,2015-03-05T14:35:00Z,27.4980,-83.7220,1018.25,1111122 
COMPS,ioos:station:USF.COMPS:C12:1,2015-03-05T15:05:00Z,27.4980,-83.7220,1018.08,1111122 
COMPS,ioos:station:USF.COMPS:C12:1,2015-03-05T15:35:00Z,27.4980,-83.7220,1018.0,1111122 
COMPS,ioos:station:USF.COMPS:C12:1,2015-03-05T16:05:00Z,27.4980,-83.7220,1017.93,1111122 
COMPS,ioos:station:USF.COMPS:C12:1,2015-03-05T16:35:00Z,27.4980,-83.7220,1017.61,1111122 
COMPS,ioos:station:USF.COMPS:C12:1,2015-03-05T17:05:00Z,27.4980,-83.7220,1017.75,1111122 
COMPS,ioos:station:USF.COMPS:C12:1,2015-03-05T17:35:00Z,27.4980,-83.7220,1017.89,1111122 
COMPS,ioos:station:USF.COMPS:C12:1,2015-03-05T18:05:00Z,27.4980,-83.7220,1017.56,1111122 
COMPS,ioos:station:USF.COMPS:C12:1,2015-03-05T18:35:00Z,27.4980,-83.7220,1017.42,1111122 
COMPS,ioos:station:USF.COMPS:C12:1,2015-03-05T19:05:00Z,27.4980,-83.7220,1016.91,1111122 
COMPS,ioos:station:USF.COMPS:C12:1,2015-03-05T19:35:00Z,27.4980,-83.7220,1016.91,1111122 
COMPS,ioos:station:USF.COMPS:C12:1,2015-03-05T20:05:00Z,27.4980,-83.7220,1016.51,1111122 
COMPS,ioos:station:USF.COMPS:C12:1,2015-03-05T20:35:00Z,27.4980,-83.7220,1016.48,1111122 
COMPS,ioos:station:USF.COMPS:C12:1,2015-03-05T21:05:00Z,27.4980,-83.7220,1016.47,1111122 
COMPS,ioos:station:USF.COMPS:C12:1,2015-03-05T21:35:00Z,27.4980,-83.7220,1016.49,1111122 
COMPS,ioos:station:USF.COMPS:C12:1,2015-03-05T22:05:00Z,27.4980,-83.7220,1016.64,1111122 
COMPS,ioos:station:USF.COMPS:C12:1,2015-03-05T22:35:00Z,27.4980,-83.7220,1016.7,1111122 
COMPS,ioos:station:USF.COMPS:C12:1,2015-03-05T23:05:00Z,27.4980,-83.7220,1016.76,1111122 
COMPS,ioos:station:USF.COMPS:C12:1,2015-03-05T23:35:00Z,27.4980,-83.7220,1016.96,1111122 
COMPS,ioos:station:USF.COMPS:C12:1,2015-03-06T00:05:00Z,27.4980,-83.7220,1017.24,1111122 
COMPS,ioos:station:USF.COMPS:C12:1,2015-03-06T00:35:00Z,27.4980,-83.7220,1017.53,1111122 
COMPS,ioos:station:USF.COMPS:C12:1,2015-03-06T01:05:00Z,27.4980,-83.7220,1017.82,1111122 
COMPS,ioos:station:USF.COMPS:C12:1,2015-03-06T01:35:00Z,27.4980,-83.7220,1018.25,1111122 
COMPS,ioos:station:USF.COMPS:C12:1,2015-03-06T02:05:00Z,27.4980,-83.7220,1018.58,1111122 
COMPS,ioos:station:USF.COMPS:C12:1,2015-03-06T02:35:00Z,27.4980,-83.7220,1018.71,1111122 
COMPS,ioos:station:USF.COMPS:C12:1,2015-03-06T03:05:00Z,27.4980,-83.7220,1018.85,1111122 
COMPS,ioos:station:USF.COMPS:C12:1,2015-03-06T03:35:00Z,27.4980,-83.7220,1019.14,1111122 
COMPS,ioos:station:USF.COMPS:C12:1,2015-03-06T04:05:00Z,27.4980,-83.7220,1019.3,1111122 
COMPS,ioos:station:USF.COMPS:C12:1,2015-03-06T04:35:00Z,27.4980,-83.7220,1019.17,1111122 
COMPS,ioos:station:USF.COMPS:C12:1,2015-03-06T05:05:00Z,27.4980,-83.7220,1018.94,1111122 
COMPS,ioos:station:USF.COMPS:C12:1,2015-03-06T05:35:00Z,27.4980,-83.7220,1018.79,1111122 
COMPS,ioos:station:USF.COMPS:C12:1,2015-03-06T07:05:00Z,27.4980,-83.7220,1018.41,1111122 
COMPS,ioos:station:USF.COMPS:C12:1,2015-03-06T07:35:00Z,27.4980,-83.7220,1018.18,1111122 
COMPS,ioos:station:USF.COMPS:C12:1,2015-03-06T08:05:00Z,27.4980,-83.7220,1018.09,1111122 
COMPS,ioos:station:USF.COMPS:C12:1,2015-03-06T08:35:00Z,27.4980,-83.7220,1018.13,1111122 
COMPS,ioos:station:USF.COMPS:C12:1,2015-03-06T09:05:00Z,27.4980,-83.7220,1018.44,1111122 
COMPS,ioos:station:USF.COMPS:C12:1,2015-03-06T09:35:00Z,27.4980,-83.7220,1018.47,1111122 
COMPS,ioos:station:USF.COMPS:C12:1,2015-03-06T10:05:00Z,27.4980,-83.7220,1018.77,1111122 
COMPS,ioos:station:USF.COMPS:C12:1,2015-03-06T10:35:00Z,27.4980,-83.7220,1019.07,1111122 
COMPS,ioos:station:USF.COMPS:C12:1,2015-03-06T11:05:00Z,27.4980,-83.7220,1019.64,1111122 
COMPS,ioos:station:USF.COMPS:C12:1,2015-03-06T11:35:00Z,27.4980,-83.7220,1019.83,1111122 
COMPS,ioos:station:USF.COMPS:C12:1,2015-03-06T12:05:00Z,27.4980,-83.7220,1020.09,1111122 
COMPS,ioos:station:USF.COMPS:C12:1,2015-03-06T12:35:00Z,27.4980,-83.7220,1020.44,1111122 
COMPS,ioos:station:USF.COMPS:C12:1,2015-03-06T13:05:00Z,27.4980,-83.7220,1020.73,1111122 
COMPS,ioos:station:USF.COMPS:C12:1,2015-03-06T13:35:00Z,27.4980,-83.7220,1021.02,1111122 